FW3877 Weather Reports


Display with metric or nautical units.
time (UTC)temp
F
wind
direction
speed
MPH
gust
MPH
rain 1hr
in
rain 24hr
in
rain mn
in
humidity
%
barometer
mb
20260505130204 52 313 4.0 9.0 0.00 0.02 0.08 75 1017.6
20260505124704 52 7 3.0 9.0 0.00 0.02 0.08 76 1017.7
20260505123204 52 6 7.0 13.0 0.00 0.02 0.08 75 1017.6
20260505122704 52 5 5.0 10.0 0.00 0.02 0.08 74 1017.6
20260505121703 52 331 3.0 8.0 0.00 0.02 0.08 76 1017.6
20260505120704 53 6 2.0 8.0 0.00 0.02 0.08 77 1017.6
20260505120204 52 21 3.0 8.0 0.00 0.02 0.08 77 1017.7
20260505115703 53 359 5.0 12.0 0.00 0.02 0.08 78 1017.8
20260505115203 52 11 6.0 9.0 0.00 0.02 0.08 78 1017.7
20260505114703 51 24 6.0 13.0 0.00 0.02 0.08 78 1017.7
20260505114203 51 351 5.0 10.0 0.00 0.02 0.08 79 1017.7
20260505113703 51 343 6.0 12.0 0.00 0.02 0.08 78 1017.7
20260505112704 50 26 6.0 12.0 0.00 0.02 0.08 79 1017.7
20260505112204 51 19 3.0 8.0 0.00 0.02 0.08 80 1017.7
20260505111704 51 355 6.0 9.0 0.00 0.02 0.08 80 1017.7
20260505111203 51 320 5.0 10.0 0.00 0.02 0.08 80 1017.8
20260505110703 51 24 9.0 12.0 0.00 0.02 0.08 80 1017.8
20260505110204 52 7 5.0 9.0 0.00 0.02 0.08 82 1017.7
20260505102204 49 5 6.0 13.0 0.00 0.02 0.08 86 1017.7
20260505101704 49 17 5.0 12.0 0.00 0.02 0.08 86 1017.7
20260505100704 50 32 7.0 12.0 0.00 0.02 0.08 87 1017.8
20260505100203 49 14 6.0 14.0 0.00 0.02 0.08 87 1017.9
20260505095704 49 20 6.0 12.0 0.00 0.02 0.08 87 1017.8
20260504150704 53 20 5.0 8.0 0.00 0.02 0.00 70 1017.9